| time (UTC) | temp C | wind direction | speed KPH | gust KPH | rain 1hr cm | rain 24hr cm | rain mn cm | humidity % | barometer mb |
| 20260503212850 | 30 | 101 | 0.0 | 0.0 | 0.00 | 0.00 | 0.00 | 30 | 1011.4 |
| 20260503212348 | 30 | 254 | 3.2 | 3.2 | 0.00 | 0.00 | 0.00 | 29 | 1011.2 |
| 20260503211845 | 30 | 96 | 0.0 | 0.0 | 0.00 | 0.00 | 0.00 | 30 | 1011.4 |
| 20260503211342 | 30 | 90 | 1.6 | 1.6 | 0.00 | 0.00 | 0.00 | 34 | 1011.5 |
| 20260503210837 | 30 | 94 | 3.2 | 3.2 | 0.00 | 0.00 | 0.00 | 33 | 1011.6 |
| 20260503210335 | 30 | 106 | 0.0 | 1.6 | 0.00 | 0.00 | 0.00 | 32 | 1011.5 |
| 20260503205829 | 30 | 89 | 1.6 | 1.6 | 0.00 | 0.00 | 0.00 | 35 | 1011.7 |
| 20260503205326 | 30 | 100 | 3.2 | 4.8 | 0.00 | 0.00 | 0.00 | 33 | 1011.8 |
| 20260503204823 | 30 | 88 | 3.2 | 3.2 | 0.00 | 0.00 | 0.00 | 34 | 1011.8 |
| 20260503204320 | 30 | 81 | 3.2 | 3.2 | 0.00 | 0.00 | 0.00 | 35 | 1011.9 |
| 20260503203817 | 29 | 93 | 0.0 | 0.0 | 0.00 | 0.00 | 0.00 | 35 | 1011.8 |
| 20260503203315 | 29 | 95 | 3.2 | 4.8 | 0.00 | 0.00 | 0.00 | 35 | 1011.9 |
| 20260503202812 | 29 | 101 | 0.0 | 0.0 | 0.00 | 0.00 | 0.00 | 37 | 1012.1 |
| 20260503202310 | 29 | 96 | 3.2 | 3.2 | 0.00 | 0.00 | 0.00 | 38 | 1011.9 |
| 20260503201808 | 28 | 101 | 0.0 | 0.0 | 0.00 | 0.00 | 0.00 | 39 | 1012.2 |
| 20260503201304 | 28 | 108 | 3.2 | 3.2 | 0.00 | 0.00 | 0.00 | 38 | 1012.2 |
| 20260503200802 | 28 | 94 | 1.6 | 3.2 | 0.00 | 0.00 | 0.00 | 40 | 1012.1 |
| 20260503200257 | 28 | 84 | 4.8 | 6.4 | 0.00 | 0.00 | 0.00 | 39 | 1012.4 |
| 20260503195755 | 28 | 103 | 3.2 | 3.2 | 0.00 | 0.00 | 0.00 | 42 | 1012.5 |
| 20260503195251 | 28 | 92 | 4.8 | 4.8 | 0.00 | 0.00 | 0.00 | 42 | 1012.6 |
| 20260503194744 | 28 | 121 | 0.0 | 1.6 | 0.00 | 0.00 | 0.00 | 43 | 1012.6 |
| 20260503194239 | 27 | 92 | 1.6 | 1.6 | 0.00 | 0.00 | 0.00 | 43 | 1012.6 |
| 20260503193736 | 27 | 123 | 0.0 | 0.0 | 0.00 | 0.00 | 0.00 | 42 | 1012.7 |
| 20260503193232 | 27 | 97 | 3.2 | 3.2 | 0.00 | 0.00 | 0.00 | 44 | 1012.7 |
| 20260503192727 | 27 | 100 | 0.0 | 1.6 | 0.00 | 0.00 | 0.00 | 45 | 1012.9 |
| 20260503192223 | 27 | 105 | 1.6 | 1.6 | 0.00 | 0.00 | 0.00 | 46 | 1012.8 |
| 20260503191720 | 27 | 89 | 3.2 | 3.2 | 0.00 | 0.00 | 0.00 | 44 | 1012.9 |
| 20260503191217 | 26 | 97 | 1.6 | 1.6 | 0.00 | 0.00 | 0.00 | 47 | 1012.9 |
| 20260503190713 | 26 | 96 | 1.6 | 3.2 | 0.00 | 0.00 | 0.00 | 48 | 1012.9 |
| 20260503190210 | 25 | 115 | 1.6 | 3.2 | 0.00 | 0.00 | 0.00 | 49 | 1013.1 |
| 20260503185708 | 25 | 153 | 3.2 | 3.2 | 0.00 | 0.00 | 0.00 | 49 | 1013.2 |
| 20260503185203 | 26 | 83 | 4.8 | 6.4 | 0.00 | 0.00 | 0.00 | 51 | 1013.0 |
| 20260503184658 | 25 | 103 | 1.6 | 3.2 | 0.00 | 0.00 | 0.00 | 51 | 1013.2 |
| 20260503184154 | 25 | 88 | 3.2 | 4.8 | 0.00 | 0.00 | 0.00 | 52 | 1013.4 |
| 20260503183651 | 24 | 136 | 1.6 | 1.6 | 0.00 | 0.00 | 0.00 | 53 | 1013.4 |
| 20260503183148 | 24 | 90 | 3.2 | 4.8 | 0.00 | 0.00 | 0.00 | 54 | 1013.6 |
| 20260503182646 | 23 | 168 | 1.6 | 3.2 | 0.00 | 0.00 | 0.00 | 54 | 1013.5 |
| 20260503182145 | 23 | 95 | 4.8 | 4.8 | 0.00 | 0.00 | 0.00 | 56 | 1013.6 |
| 20260503181641 | 23 | 96 | 0.0 | 0.0 | 0.00 | 0.00 | 0.00 | 57 | 1013.5 |
| 20260503181138 | 22 | 208 | 4.8 | 4.8 | 0.00 | 0.00 | 0.00 | 57 | 1013.7 |
| 20260503180635 | 22 | 96 | 0.0 | 1.6 | 0.00 | 0.00 | 0.00 | 59 | 1013.6 |
| 20260503180132 | 22 | 155 | 1.6 | 3.2 | 0.00 | 0.00 | 0.00 | 60 | 1013.7 |
| 20260503175624 | 22 | 106 | 0.0 | 0.0 | 0.00 | 0.00 | 0.00 | 62 | 1013.8 |
| 20260503175120 | 21 | 131 | 1.6 | 3.2 | 0.00 | 0.00 | 0.00 | 62 | 1013.9 |
| 20260503174617 | 21 | 176 | 1.6 | 1.6 | 0.00 | 0.00 | 0.00 | 63 | 1014.0 |
| 20260503174115 | 21 | 103 | 0.0 | 1.6 | 0.00 | 0.00 | 0.00 | 63 | 1013.9 |
| 20260503173609 | 21 | 94 | 1.6 | 3.2 | 0.00 | 0.00 | 0.00 | 65 | 1014.1 |
| 20260503173106 | 21 | 81 | 1.6 | 1.6 | 0.00 | 0.00 | 0.00 | 66 | 1014.1 |
| 20260503172602 | 20 | 97 | 0.0 | 0.0 | 0.00 | 0.00 | 0.00 | 65 | 1014.0 |
| 20260503172100 | 20 | 91 | 3.2 | 3.2 | 0.00 | 0.00 | 0.00 | 66 | 1014.1 |
| 20260503171550 | 20 | 90 | 3.2 | 3.2 | 0.00 | 0.00 | 0.00 | 67 | 1014.3 |
| 20260503171048 | 20 | 96 | 0.0 | 1.6 | 0.00 | 0.00 | 0.00 | 68 | 1014.2 |
| 20260503170544 | 20 | 98 | 0.0 | 0.0 | 0.00 | 0.00 | 0.00 | 68 | 1014.2 |
| 20260503150937 | 14 | 94 | 0.0 | 0.0 | 0.00 | 0.00 | 0.00 | 92 | 1014.7 |
| 20260503150433 | 13 | 94 | 0.0 | 0.0 | 0.00 | 0.00 | 0.00 | 93 | 1014.7 |
| 20260503131320 | 11 | 127 | 0.0 | 0.0 | 0.00 | 0.00 | 0.00 | 98 | 1014.3 |
| 20260503130818 | 11 | 100 | 0.0 | 0.0 | 0.00 | 0.00 | 0.00 | 98 | 1014.5 |
| 20260503130315 | 11 | 109 | 0.0 | 0.0 | 0.00 | 0.00 | 0.00 | 98 | 1014.2 |
| 20260503110703 | 11 | 95 | 0.0 | 0.0 | 0.00 | 0.00 | 0.00 | 97 | 1014.6 |
| 20260503110200 | 12 | 92 | 0.0 | 0.0 | 0.00 | 0.00 | 0.00 | 97 | 1014.7 |
| 20260503100127 | 12 | 99 | 0.0 | 0.0 | 0.00 | 0.00 | 0.00 | 94 | 1014.7 |
| 20260503081516 | 14 | 101 | 0.0 | 0.0 | 0.00 | 0.00 | 0.00 | 88 | 1014.8 |
| 20260503081013 | 15 | 102 | 1.6 | 1.6 | 0.00 | 0.00 | 0.00 | 87 | 1014.9 |
| 20260503080509 | 15 | 102 | 0.0 | 0.0 | 0.00 | 0.00 | 0.00 | 86 | 1014.9 |
| 20260503072443 | 15 | 103 | 0.0 | 0.0 | 0.00 | 0.00 | 0.00 | 84 | 1014.9 |
| 20260503071940 | 16 | 102 | 0.0 | 1.6 | 0.00 | 0.00 | 0.00 | 83 | 1014.9 |
| 20260503071437 | 16 | 105 | 0.0 | 0.0 | 0.00 | 0.00 | 0.00 | 83 | 1014.8 |
| 20260503070933 | 16 | 105 | 0.0 | 0.0 | 0.00 | 0.00 | 0.00 | 82 | 1014.8 |
| 20260503070430 | 16 | 106 | 0.0 | 0.0 | 0.00 | 0.00 | 0.00 | 82 | 1015.0 |
| 20260503054844 | 17 | 99 | 1.6 | 1.6 | 0.00 | 0.03 | 0.03 | 78 | 1014.7 |
| 20260503054339 | 17 | 97 | 1.6 | 1.6 | 0.00 | 0.03 | 0.03 | 78 | 1014.7 |
| 20260503053837 | 17 | 99 | 1.6 | 1.6 | 0.00 | 0.03 | 0.03 | 78 | 1014.8 |
| 20260503053336 | 17 | 98 | 0.0 | 1.6 | 0.00 | 0.03 | 0.03 | 78 | 1014.9 |
| 20260503052831 | 17 | 99 | 0.0 | 0.0 | 0.00 | 0.03 | 0.03 | 78 | 1015.0 |
| 20260503052329 | 17 | 100 | 1.6 | 1.6 | 0.00 | 0.03 | 0.03 | 77 | 1015.1 |
| 20260503051825 | 17 | 100 | 0.0 | 0.0 | 0.00 | 0.03 | 0.03 | 78 | 1015.2 |
| 20260503051321 | 17 | 100 | 0.0 | 0.0 | 0.00 | 0.03 | 0.03 | 77 | 1015.2 |
| 20260503050818 | 17 | 100 | 0.0 | 1.6 | 0.00 | 0.03 | 0.03 | 78 | 1015.1 |
| 20260503050314 | 17 | 100 | 1.6 | 1.6 | 0.00 | 0.03 | 0.03 | 77 | 1015.2 |
| 20260503045812 | 17 | 102 | 0.0 | 1.6 | 0.00 | 0.03 | 0.03 | 76 | 1015.2 |
| 20260503045310 | 17 | 104 | 0.0 | 0.0 | 0.00 | 0.03 | 0.03 | 75 | 1015.2 |
| 20260503044806 | 17 | 104 | 0.0 | 0.0 | 0.00 | 0.03 | 0.03 | 75 | 1015.2 |
| 20260503044303 | 17 | 105 | 0.0 | 1.6 | 0.00 | 0.03 | 0.03 | 75 | 1015.1 |
| 20260503043800 | 17 | 98 | 0.0 | 0.0 | 0.00 | 0.03 | 0.03 | 75 | 1015.1 |
| 20260503043257 | 17 | 98 | 0.0 | 0.0 | 0.00 | 0.03 | 0.03 | 75 | 1015.0 |
| 20260503042753 | 18 | 98 | 0.0 | 0.0 | 0.00 | 0.03 | 0.03 | 74 | 1015.2 |
| 20260503042250 | 18 | 98 | 0.0 | 0.0 | 0.00 | 0.03 | 0.03 | 74 | 1015.4 |
| 20260503041745 | 18 | 98 | 0.0 | 0.0 | 0.00 | 0.03 | 0.03 | 73 | 1015.1 |
| 20260503041244 | 18 | 98 | 0.0 | 0.0 | 0.00 | 0.03 | 0.03 | 73 | 1015.2 |
| 20260503040741 | 18 | 98 | 0.0 | 0.0 | 0.00 | 0.03 | 0.03 | 72 | 1015.1 |
| 20260503040239 | 18 | 99 | 0.0 | 0.0 | 0.00 | 0.03 | 0.03 | 72 | 1015.1 |
| 20260503035735 | 18 | 97 | 0.0 | 0.0 | 0.00 | 0.03 | 0.03 | 72 | 1015.2 |
| 20260503035233 | 18 | 104 | 1.6 | 1.6 | 0.00 | 0.03 | 0.03 | 71 | 1015.1 |
| 20260503034730 | 18 | 106 | 0.0 | 0.0 | 0.00 | 0.03 | 0.03 | 71 | 1015.1 |
| 20260503034226 | 18 | 107 | 0.0 | 0.0 | 0.00 | 0.03 | 0.03 | 71 | 1015.0 |
| 20260503033724 | 18 | 107 | 0.0 | 0.0 | 0.00 | 0.03 | 0.03 | 70 | 1014.9 |
| 20260503033221 | 18 | 114 | 1.6 | 1.6 | 0.00 | 0.03 | 0.03 | 70 | 1014.9 |
| 20260503032720 | 18 | 108 | 0.0 | 1.6 | 0.00 | 0.03 | 0.03 | 70 | 1014.8 |
| 20260503032218 | 18 | 117 | 1.6 | 1.6 | 0.00 | 0.03 | 0.03 | 70 | 1014.8 |
| 20260503031714 | 18 | 131 | 4.8 | 4.8 | 0.00 | 0.03 | 0.03 | 69 | 1014.7 |
| 20260503031213 | 19 | 124 | 3.2 | 3.2 | 0.00 | 0.03 | 0.03 | 69 | 1014.7 |
| 20260503030709 | 19 | 124 | 4.8 | 4.8 | 0.00 | 0.03 | 0.03 | 69 | 1014.7 |
| 20260503030205 | 20 | 126 | 3.2 | 3.2 | 0.00 | 0.03 | 0.03 | 68 | 1014.6 |
| 20260503025702 | 20 | 125 | 3.2 | 3.2 | 0.00 | 0.03 | 0.03 | 67 | 1014.4 |
| 20260503025200 | 20 | 116 | 1.6 | 3.2 | 0.00 | 0.03 | 0.03 | 66 | 1014.6 |
| 20260503024656 | 21 | 123 | 1.6 | 3.2 | 0.00 | 0.03 | 0.03 | 64 | 1014.3 |
| 20260503024154 | 22 | 131 | 4.8 | 4.8 | 0.00 | 0.03 | 0.03 | 61 | 1014.3 |
| 20260503023650 | 22 | 114 | 6.4 | 9.7 | 0.00 | 0.03 | 0.03 | 60 | 1014.0 |
| 20260503023147 | 22 | 120 | 1.6 | 1.6 | 0.00 | 0.03 | 0.03 | 59 | 1013.9 |
| 20260503022644 | 22 | 130 | 3.2 | 3.2 | 0.00 | 0.03 | 0.03 | 59 | 1014.2 |
| 20260503022143 | 22 | 132 | 3.2 | 3.2 | 0.00 | 0.03 | 0.03 | 59 | 1013.9 |
| 20260503021640 | 22 | 115 | 1.6 | 3.2 | 0.00 | 0.03 | 0.03 | 59 | 1013.8 |
| 20260503021137 | 22 | 114 | 1.6 | 1.6 | 0.00 | 0.03 | 0.03 | 60 | 1013.7 |
| 20260503020634 | 22 | 226 | 3.2 | 3.2 | 0.00 | 0.03 | 0.03 | 59 | 1013.7 |
| 20260503020131 | 22 | 119 | 1.6 | 1.6 | 0.00 | 0.03 | 0.03 | 59 | 1013.5 |
| 20260503015628 | 22 | 123 | 3.2 | 3.2 | 0.00 | 0.03 | 0.03 | 59 | 1013.5 |
| 20260503015125 | 23 | 122 | 3.2 | 3.2 | 0.00 | 0.03 | 0.03 | 58 | 1013.5 |
| 20260503014621 | 23 | 114 | 1.6 | 1.6 | 0.00 | 0.03 | 0.03 | 57 | 1013.3 |
| 20260503014119 | 23 | 101 | 1.6 | 1.6 | 0.00 | 0.03 | 0.03 | 56 | 1013.3 |
| 20260503013616 | 23 | 101 | 0.0 | 0.0 | 0.00 | 0.03 | 0.03 | 57 | 1013.2 |
| 20260503013114 | 23 | 106 | 0.0 | 0.0 | 0.00 | 0.03 | 0.03 | 59 | 1013.3 |
| 20260503012611 | 23 | 106 | 0.0 | 0.0 | 0.00 | 0.03 | 0.03 | 58 | 1013.3 |
| 20260503012107 | 23 | 107 | 0.0 | 0.0 | 0.00 | 0.03 | 0.03 | 57 | 1013.3 |
| 20260503011604 | 23 | 107 | 0.0 | 0.0 | 0.00 | 0.03 | 0.03 | 57 | 1013.3 |
| 20260503011101 | 23 | 99 | 0.0 | 0.0 | 0.00 | 0.03 | 0.03 | 58 | 1013.2 |
| 20260503010557 | 23 | 96 | 0.0 | 0.0 | 0.00 | 0.03 | 0.03 | 57 | 1013.2 |
| 20260503010055 | 23 | 99 | 0.0 | 0.0 | 0.00 | 0.03 | 0.03 | 57 | 1013.3 |
| 20260503005551 | 23 | 96 | 0.0 | 0.0 | 0.00 | 0.03 | 0.03 | 57 | 1013.3 |
| 20260503005049 | 23 | 100 | 0.0 | 1.6 | 0.00 | 0.03 | 0.03 | 57 | 1013.3 |
| 20260503004545 | 23 | 98 | 0.0 | 0.0 | 0.00 | 0.03 | 0.03 | 59 | 1013.6 |
| 20260503004043 | 22 | 100 | 0.0 | 0.0 | 0.00 | 0.03 | 0.03 | 58 | 1013.3 |
| 20260503003539 | 22 | 100 | 0.0 | 0.0 | 0.00 | 0.03 | 0.03 | 58 | 1013.4 |
| 20260503003037 | 22 | 90 | 0.0 | 0.0 | 0.00 | 0.03 | 0.03 | 58 | 1013.3 |
| 20260503002534 | 22 | 99 | 0.0 | 0.0 | 0.00 | 0.03 | 0.03 | 58 | 1013.4 |
| 20260503002031 | 22 | 108 | 0.0 | 0.0 | 0.00 | 0.03 | 0.03 | 58 | 1013.5 |
| 20260503001527 | 22 | 97 | 0.0 | 0.0 | 0.00 | 0.03 | 0.03 | 59 | 1013.5 |
| 20260503001025 | 22 | 94 | 0.0 | 0.0 | 0.00 | 0.03 | 0.03 | 59 | 1013.5 |
| 20260503000522 | 22 | 98 | 3.2 | 3.2 | 0.00 | 0.03 | 0.03 | 60 | 1013.4 |
| 20260503000019 | 22 | 95 | 1.6 | 1.6 | 0.00 | 0.03 | 0.03 | 59 | 1013.4 |
| 20260502235515 | 22 | 102 | 0.0 | 0.0 | 0.00 | 0.03 | 0.03 | 59 | 1013.6 |
| 20260502235013 | 22 | 99 | 0.0 | 0.0 | 0.00 | 0.03 | 0.03 | 59 | 1013.6 |
| 20260502234509 | 22 | 96 | 0.0 | 1.6 | 0.00 | 0.03 | 0.03 | 59 | 1013.7 |
| 20260502234007 | 22 | 85 | 1.6 | 1.6 | 0.00 | 0.03 | 0.03 | 60 | 1013.7 |
| 20260502233506 | 22 | 90 | 1.6 | 3.2 | 0.00 | 0.03 | 0.03 | 60 | 1013.8 |
| 20260502233004 | 22 | 85 | 3.2 | 3.2 | 0.00 | 0.03 | 0.03 | 60 | 1013.8 |
| 20260502232500 | 22 | 96 | 3.2 | 3.2 | 0.00 | 0.03 | 0.03 | 60 | 1013.8 |
| 20260502231957 | 21 | 94 | 1.6 | 1.6 | 0.00 | 0.03 | 0.03 | 61 | 1013.9 |
| 20260502231454 | 21 | 100 | 1.6 | 1.6 | 0.00 | 0.03 | 0.03 | 61 | 1014.0 |
| 20260502230952 | 21 | 92 | 0.0 | 1.6 | 0.00 | 0.03 | 0.03 | 61 | 1014.0 |
| 20260502230450 | 21 | 89 | 1.6 | 1.6 | 0.00 | 0.03 | 0.03 | 60 | 1014.1 |
| 20260502225948 | 21 | 107 | 1.6 | 1.6 | 0.00 | 0.03 | 0.03 | 61 | 1014.1 |
| 20260502225444 | 21 | 44 | 3.2 | 4.8 | 0.00 | 0.03 | 0.03 | 60 | 1014.4 |
| 20260502224941 | 21 | 97 | 0.0 | 0.0 | 0.00 | 0.03 | 0.03 | 60 | 1014.3 |
| 20260502224437 | 21 | 93 | 1.6 | 1.6 | 0.00 | 0.03 | 0.03 | 60 | 1014.4 |
| 20260502223934 | 20 | 106 | 0.0 | 0.0 | 0.00 | 0.03 | 0.03 | 62 | 1014.7 |
| 20260502223432 | 20 | 96 | 0.0 | 1.6 | 0.00 | 0.03 | 0.03 | 62 | 1014.6 |
| 20260502222930 | 20 | 84 | 3.2 | 3.2 | 0.00 | 0.03 | 0.03 | 63 | 1014.7 |
| 20260502222427 | 20 | 85 | 1.6 | 1.6 | 0.00 | 0.03 | 0.03 | 62 | 1015.0 |
| 20260502221922 | 20 | 103 | 3.2 | 3.2 | 0.00 | 0.03 | 0.03 | 62 | 1014.8 |
| 20260502221419 | 20 | 93 | 0.0 | 0.0 | 0.00 | 0.03 | 0.03 | 63 | 1015.0 |
| 20260502220917 | 20 | 40 | 3.2 | 9.7 | 0.00 | 0.03 | 0.03 | 63 | 1015.0 |
| 20260502220412 | 20 | 115 | 0.0 | 1.6 | 0.00 | 0.03 | 0.03 | 62 | 1015.2 |
| 20260502215909 | 20 | 88 | 1.6 | 1.6 | 0.00 | 0.03 | 0.03 | 63 | 1015.4 |
| 20260502215407 | 20 | 98 | 0.0 | 1.6 | 0.00 | 0.03 | 0.03 | 65 | 1015.4 |
| 20260502214903 | 20 | 97 | 3.2 | 4.8 | 0.00 | 0.03 | 0.03 | 64 | 1015.6 |
| 20260502214400 | 19 | 95 | 0.0 | 0.0 | 0.00 | 0.03 | 0.03 | 65 | 1015.6 |
| 20260502213857 | 19 | 111 | 3.2 | 3.2 | 0.00 | 0.03 | 0.03 | 65 | 1015.7 |
| 20260502213354 | 19 | 119 | 3.2 | 3.2 | 0.00 | 0.03 | 0.03 | 65 | 1015.7 |